owner,sensor,date,latitude,longitude,vertical_datum,wind_speed,wind_to_direction,wind_speed_of_gust,qcFlag 
DISL,ioos:station:DISL:DISL:1,2010-12-01T00:00:00Z,30.2513,-88.0778,9.68,7.06,304.7,-9999.0,'1111122,1111122,1111122' 
DISL,ioos:station:DISL:DISL:1,2010-12-01T00:30:00Z,30.2513,-88.0778,9.68,9.45,305.4,-9999.0,'1111122,1111122,1111122' 
DISL,ioos:station:DISL:DISL:1,2010-12-01T01:00:00Z,30.2513,-88.0778,9.68,8.93,300.4,-9999.0,'1111122,1111122,1111122' 
DISL,ioos:station:DISL:DISL:1,2010-12-01T01:30:00Z,30.2513,-88.0778,9.68,9.06,302.3,-9999.0,'1111122,1111122,1111122' 
DISL,ioos:station:DISL:DISL:1,2010-12-01T02:00:00Z,30.2513,-88.0778,9.68,10.02,303.0,-9999.0,'1111122,1111122,1111122' 
DISL,ioos:station:DISL:DISL:1,2010-12-01T02:30:00Z,30.2513,-88.0778,9.68,11.87,295.5,-9999.0,'1111122,1111122,1111122' 
DISL,ioos:station:DISL:DISL:1,2010-12-01T03:00:00Z,30.2513,-88.0778,9.68,13.9,312.1,-9999.0,'1111122,1111122,1111122' 
DISL,ioos:station:DISL:DISL:1,2010-12-01T03:30:00Z,30.2513,-88.0778,9.68,12.07,305.0,-9999.0,'1111122,1111122,1111122' 
DISL,ioos:station:DISL:DISL:1,2010-12-01T04:00:00Z,30.2513,-88.0778,9.68,9.91,296.2,-9999.0,'1111122,1111122,1111122' 
DISL,ioos:station:DISL:DISL:1,2010-12-01T04:30:00Z,30.2513,-88.0778,9.68,10.61,297.8,-9999.0,'1111122,1111122,1111122' 
DISL,ioos:station:DISL:DISL:1,2010-12-01T05:00:00Z,30.2513,-88.0778,9.68,10.21,308.2,-9999.0,'1111122,1111122,1111122' 
DISL,ioos:station:DISL:DISL:1,2010-12-01T05:30:00Z,30.2513,-88.0778,9.68,9.56,307.2,-9999.0,'1111122,1111122,1111122' 
DISL,ioos:station:DISL:DISL:1,2010-12-01T06:00:00Z,30.2513,-88.0778,9.68,10.62,304.8,-9999.0,'1111122,1111122,1111122' 
DISL,ioos:station:DISL:DISL:1,2010-12-01T06:30:00Z,30.2513,-88.0778,9.68,11.41,310.4,-9999.0,'1111122,1111122,1111122' 
DISL,ioos:station:DISL:DISL:1,2010-12-01T07:00:00Z,30.2513,-88.0778,9.68,10.23,312.2,-9999.0,'1111122,1111122,1111122' 
DISL,ioos:station:DISL:DISL:1,2010-12-01T07:30:00Z,30.2513,-88.0778,9.68,9.93,318.1,-9999.0,'1111122,1111122,1111122' 
DISL,ioos:station:DISL:DISL:1,2010-12-01T08:00:00Z,30.2513,-88.0778,9.68,9.68,323.2,-9999.0,'1111122,1111122,1111122' 
DISL,ioos:station:DISL:DISL:1,2010-12-01T08:30:00Z,30.2513,-88.0778,9.68,8.87,324.4,-9999.0,'1111122,1111122,1111122' 
DISL,ioos:station:DISL:DISL:1,2010-12-01T09:00:00Z,30.2513,-88.0778,9.68,8.0,317.1,-9999.0,'1111122,1111122,1111122' 
DISL,ioos:station:DISL:DISL:1,2010-12-01T09:30:00Z,30.2513,-88.0778,9.68,7.96,319.4,-9999.0,'1111122,1111122,1111122' 
DISL,ioos:station:DISL:DISL:1,2010-12-01T10:00:00Z,30.2513,-88.0778,9.68,8.44,313.1,-9999.0,'1111122,1111122,1111122' 
DISL,ioos:station:DISL:DISL:1,2010-12-01T10:30:00Z,30.2513,-88.0778,9.68,7.58,316.6,-9999.0,'1111122,1111122,1111122' 
DISL,ioos:station:DISL:DISL:1,2010-12-01T11:00:00Z,30.2513,-88.0778,9.68,6.84,313.7,-9999.0,'1111122,1111122,1111122' 
DISL,ioos:station:DISL:DISL:1,2010-12-01T11:30:00Z,30.2513,-88.0778,9.68,7.49,309.6,-9999.0,'1111122,1111122,1111122' 
DISL,ioos:station:DISL:DISL:1,2010-12-01T12:00:00Z,30.2513,-88.0778,9.68,7.22,310.9,-9999.0,'1111122,1111122,1111122' 
DISL,ioos:station:DISL:DISL:1,2010-12-01T12:30:00Z,30.2513,-88.0778,9.68,7.77,309.1,-9999.0,'1111122,1111122,1111122' 
DISL,ioos:station:DISL:DISL:1,2010-12-01T13:00:00Z,30.2513,-88.0778,9.68,7.53,309.6,-9999.0,'1111122,1111122,1111122' 
DISL,ioos:station:DISL:DISL:1,2010-12-01T13:30:00Z,30.2513,-88.0778,9.68,7.74,319.8,-9999.0,'1111122,1111122,1111122' 
DISL,ioos:station:DISL:DISL:1,2010-12-01T14:00:00Z,30.2513,-88.0778,9.68,6.22,319.0,-9999.0,'1111122,1111122,1111122' 
DISL,ioos:station:DISL:DISL:1,2010-12-01T14:30:00Z,30.2513,-88.0778,9.68,5.33,329.9,-9999.0,'1111122,1111122,1111122' 
DISL,ioos:station:DISL:DISL:1,2010-12-01T15:00:00Z,30.2513,-88.0778,9.68,5.18,321.9,-9999.0,'1111122,1111122,1111122' 
DISL,ioos:station:DISL:DISL:1,2010-12-01T15:30:00Z,30.2513,-88.0778,9.68,5.62,334.9,-9999.0,'1111122,1111122,1111122' 
DISL,ioos:station:DISL:DISL:1,2010-12-01T16:00:00Z,30.2513,-88.0778,9.68,4.66,345.8,-9999.0,'1111122,1111122,1111122' 
DISL,ioos:station:DISL:DISL:1,2010-12-01T16:30:00Z,30.2513,-88.0778,9.68,3.96,347.1,-9999.0,'1111122,1111122,1111122' 
DISL,ioos:station:DISL:DISL:1,2010-12-01T17:00:00Z,30.2513,-88.0778,9.68,3.49,346.6,-9999.0,'1111122,1111122,1111122' 
DISL,ioos:station:DISL:DISL:1,2010-12-01T17:30:00Z,30.2513,-88.0778,9.68,3.55,9.42,-9999.0,'1111122,1111122,1111122' 
DISL,ioos:station:DISL:DISL:1,2010-12-01T18:00:00Z,30.2513,-88.0778,9.68,2.66,9.05,-9999.0,'1111122,1111122,1111122' 
DISL,ioos:station:DISL:DISL:1,2010-12-01T18:30:00Z,30.2513,-88.0778,9.68,2.67,17.51,-9999.0,'1111122,1111122,1111122' 
DISL,ioos:station:DISL:DISL:1,2010-12-01T19:00:00Z,30.2513,-88.0778,9.68,2.51,19.82,-9999.0,'1111122,1111122,1111122' 
DISL,ioos:station:DISL:DISL:1,2010-12-01T19:30:00Z,30.2513,-88.0778,9.68,2.57,28.15,-9999.0,'1111122,1111122,1111122' 
DISL,ioos:station:DISL:DISL:1,2010-12-01T20:00:00Z,30.2513,-88.0778,9.68,2.39,39.14,-9999.0,'1111122,1111122,1111122' 
DISL,ioos:station:DISL:DISL:1,2010-12-01T20:30:00Z,30.2513,-88.0778,9.68,1.34,64.93,-9999.0,'1111122,1111122,1111122' 
DISL,ioos:station:DISL:DISL:1,2010-12-01T21:00:00Z,30.2513,-88.0778,9.68,1.5,72.2,-9999.0,'1111122,1111122,1111122' 
DISL,ioos:station:DISL:DISL:1,2010-12-01T21:30:00Z,30.2513,-88.0778,9.68,3.69,318.0,-9999.0,'1111122,1111122,1111122' 
DISL,ioos:station:DISL:DISL:1,2010-12-01T22:00:00Z,30.2513,-88.0778,9.68,5.75,320.9,-9999.0,'1111122,1111122,1111122' 
DISL,ioos:station:DISL:DISL:1,2010-12-01T22:30:00Z,30.2513,-88.0778,9.68,5.01,322.5,-9999.0,'1111122,1111122,1111122' 
DISL,ioos:station:DISL:DISL:1,2010-12-01T23:00:00Z,30.2513,-88.0778,9.68,5.32,319.5,-9999.0,'1111122,1111122,1111122' 
DISL,ioos:station:DISL:DISL:1,2010-12-01T23:30:00Z,30.2513,-88.0778,9.68,4.52,330.2,-9999.0,'1111122,1111122,1111122' 
DISL,ioos:station:DISL:DISL:1,2010-12-02T00:00:00Z,30.2513,-88.0778,9.68,4.04,327.7,-9999.0,'1111122,1111122,1111122' 
DISL,ioos:station:DISL:DISL:1,2010-12-02T00:30:00Z,30.2513,-88.0778,9.68,4.25,330.5,-9999.0,'1111122,1111122,1111122' 
DISL,ioos:station:DISL:DISL:1,2010-12-02T01:00:00Z,30.2513,-88.0778,9.68,4.44,335.9,-9999.0,'1111122,1111122,1111122' 
DISL,ioos:station:DISL:DISL:1,2010-12-02T01:30:00Z,30.2513,-88.0778,9.68,4.34,333.0,-9999.0,'1111122,1111122,1111122' 
DISL,ioos:station:DISL:DISL:1,2010-12-02T02:00:00Z,30.2513,-88.0778,9.68,3.75,332.7,-9999.0,'1111122,1111122,1111122' 
DISL,ioos:station:DISL:DISL:1,2010-12-02T02:30:00Z,30.2513,-88.0778,9.68,3.19,335.2,-9999.0,'1111122,1111122,1111122' 
DISL,ioos:station:DISL:DISL:1,2010-12-02T03:00:00Z,30.2513,-88.0778,9.68,1.86,279.8,-9999.0,'1111122,1111122,1111122' 
DISL,ioos:station:DISL:DISL:1,2010-12-02T03:30:00Z,30.2513,-88.0778,9.68,1.74,272.2,-9999.0,'1111122,1111122,1111122' 
DISL,ioos:station:DISL:DISL:1,2010-12-02T04:00:00Z,30.2513,-88.0778,9.68,1.71,279.4,-9999.0,'1111122,1111122,1111122' 
DISL,ioos:station:DISL:DISL:1,2010-12-02T04:30:00Z,30.2513,-88.0778,9.68,1.54,278.3,-9999.0,'1111122,1111122,1111122' 
DISL,ioos:station:DISL:DISL:1,2010-12-02T05:00:00Z,30.2513,-88.0778,9.68,1.74,281.9,-9999.0,'1111122,1111122,1111122' 
DISL,ioos:station:DISL:DISL:1,2010-12-02T05:30:00Z,30.2513,-88.0778,9.68,1.68,282.8,-9999.0,'1111122,1111122,1111122' 
DISL,ioos:station:DISL:DISL:1,2010-12-02T06:00:00Z,30.2513,-88.0778,9.68,1.78,282.5,-9999.0,'1111122,1111122,1111122' 
DISL,ioos:station:DISL:DISL:1,2010-12-02T06:30:00Z,30.2513,-88.0778,9.68,1.75,286.2,-9999.0,'1111122,1111122,1111122' 
DISL,ioos:station:DISL:DISL:1,2010-12-02T07:00:00Z,30.2513,-88.0778,9.68,1.87,280.6,-9999.0,'1111122,1111122,1111122' 
DISL,ioos:station:DISL:DISL:1,2010-12-02T07:30:00Z,30.2513,-88.0778,9.68,2.03,288.4,-9999.0,'1111122,1111122,1111122' 
DISL,ioos:station:DISL:DISL:1,2010-12-02T08:00:00Z,30.2513,-88.0778,9.68,2.09,283.8,-9999.0,'1111122,1111122,1111122' 
DISL,ioos:station:DISL:DISL:1,2010-12-02T08:30:00Z,30.2513,-88.0778,9.68,2.26,282.2,-9999.0,'1111122,1111122,1111122' 
DISL,ioos:station:DISL:DISL:1,2010-12-02T09:00:00Z,30.2513,-88.0778,9.68,2.09,274.1,-9999.0,'1111122,1111122,1111122' 
DISL,ioos:station:DISL:DISL:1,2010-12-02T09:30:00Z,30.2513,-88.0778,9.68,1.98,278.5,-9999.0,'1111122,1111122,1111122' 
DISL,ioos:station:DISL:DISL:1,2010-12-02T10:00:00Z,30.2513,-88.0778,9.68,1.92,277.7,-9999.0,'1111122,1111122,1111122' 
DISL,ioos:station:DISL:DISL:1,2010-12-02T10:30:00Z,30.2513,-88.0778,9.68,1.6,282.3,-9999.0,'1111122,1111122,1111122' 
DISL,ioos:station:DISL:DISL:1,2010-12-02T11:00:00Z,30.2513,-88.0778,9.68,1.7,335.2,-9999.0,'1111122,1111122,1111122' 
DISL,ioos:station:DISL:DISL:1,2010-12-02T11:30:00Z,30.2513,-88.0778,9.68,2.09,1.757,-9999.0,'1111122,1111122,1111122' 
DISL,ioos:station:DISL:DISL:1,2010-12-02T12:00:00Z,30.2513,-88.0778,9.68,2.0,24.41,-9999.0,'1111122,1111122,1111122' 
DISL,ioos:station:DISL:DISL:1,2010-12-02T12:30:00Z,30.2513,-88.0778,9.68,2.6,31.68,-9999.0,'1111122,1111122,1111122' 
DISL,ioos:station:DISL:DISL:1,2010-12-02T13:00:00Z,30.2513,-88.0778,9.68,3.07,35.73,-9999.0,'1111122,1111122,1111122' 
DISL,ioos:station:DISL:DISL:1,2010-12-02T13:30:00Z,30.2513,-88.0778,9.68,3.1,41.92,-9999.0,'1111122,1111122,1111122' 
DISL,ioos:station:DISL:DISL:1,2010-12-02T14:00:00Z,30.2513,-88.0778,9.68,2.43,40.29,-9999.0,'1111122,1111122,1111122' 
DISL,ioos:station:DISL:DISL:1,2010-12-02T14:30:00Z,30.2513,-88.0778,9.68,2.77,58.8,-9999.0,'1111122,1111122,1111122' 
DISL,ioos:station:DISL:DISL:1,2010-12-02T15:00:00Z,30.2513,-88.0778,9.68,2.16,56.57,-9999.0,'1111122,1111122,1111122' 
DISL,ioos:station:DISL:DISL:1,2010-12-02T15:30:00Z,30.2513,-88.0778,9.68,2.15,52.92,-9999.0,'1111122,1111122,1111122' 
DISL,ioos:station:DISL:DISL:1,2010-12-02T16:00:00Z,30.2513,-88.0778,9.68,1.89,28.07,-9999.0,'1111122,1111122,1111122' 
DISL,ioos:station:DISL:DISL:1,2010-12-02T16:30:00Z,30.2513,-88.0778,9.68,1.5,42.49,-9999.0,'1111122,1111122,1111122' 
DISL,ioos:station:DISL:DISL:1,2010-12-02T17:00:00Z,30.2513,-88.0778,9.68,1.45,40.55,-9999.0,'1111122,1111122,1111122' 
DISL,ioos:station:DISL:DISL:1,2010-12-02T17:30:00Z,30.2513,-88.0778,9.68,1.17,24.24,-9999.0,'1111122,1111122,1111122' 
DISL,ioos:station:DISL:DISL:1,2010-12-02T18:00:00Z,30.2513,-88.0778,9.68,1.13,59.65,-9999.0,'1111122,1111122,1111122' 
DISL,ioos:station:DISL:DISL:1,2010-12-02T18:30:00Z,30.2513,-88.0778,9.68,1.28,88.1,-9999.0,'1111122,1111122,1111122' 
DISL,ioos:station:DISL:DISL:1,2010-12-02T19:00:00Z,30.2513,-88.0778,9.68,1.53,117.4,-9999.0,'1111122,1111122,1111122' 
DISL,ioos:station:DISL:DISL:1,2010-12-02T19:30:00Z,30.2513,-88.0778,9.68,1.91,195.7,-9999.0,'1111122,1111122,1111122' 
DISL,ioos:station:DISL:DISL:1,2010-12-02T20:00:00Z,30.2513,-88.0778,9.68,2.16,201.5,-9999.0,'1111122,1111122,1111122' 
DISL,ioos:station:DISL:DISL:1,2010-12-02T20:30:00Z,30.2513,-88.0778,9.68,2.38,207.1,-9999.0,'1111122,1111122,1111122' 
DISL,ioos:station:DISL:DISL:1,2010-12-02T21:00:00Z,30.2513,-88.0778,9.68,1.7,211.4,-9999.0,'1111122,1111122,1111122' 
DISL,ioos:station:DISL:DISL:1,2010-12-02T21:30:00Z,30.2513,-88.0778,9.68,1.49,201.5,-9999.0,'1111122,1111122,1111122' 
DISL,ioos:station:DISL:DISL:1,2010-12-02T22:00:00Z,30.2513,-88.0778,9.68,1.12,221.1,-9999.0,'1111122,1111122,1111122' 
DISL,ioos:station:DISL:DISL:1,2010-12-02T22:30:00Z,30.2513,-88.0778,9.68,0.9,231.7,-9999.0,'1111122,1111122,1111122' 
DISL,ioos:station:DISL:DISL:1,2010-12-02T23:00:00Z,30.2513,-88.0778,9.68,1.01,241.8,-9999.0,'1111122,1111122,1111122' 
DISL,ioos:station:DISL:DISL:1,2010-12-02T23:30:00Z,30.2513,-88.0778,9.68,0.96,266.1,-9999.0,'1111122,1111122,1111122' 
DISL,ioos:station:DISL:DISL:1,2010-12-03T00:00:00Z,30.2513,-88.0778,9.68,0.56,273.5,-9999.0,'1111122,1111122,1111122' 
DISL,ioos:station:DISL:DISL:1,2010-12-03T00:30:00Z,30.2513,-88.0778,9.68,0.55,273.3,-9999.0,'1111122,1111122,1111122' 
DISL,ioos:station:DISL:DISL:1,2010-12-03T01:00:00Z,30.2513,-88.0778,9.68,1.78,268.1,-9999.0,'1111122,1111122,1111122' 
DISL,ioos:station:DISL:DISL:1,2010-12-03T01:30:00Z,30.2513,-88.0778,9.68,1.48,262.2,-9999.0,'1111122,1111122,1111122' 
DISL,ioos:station:DISL:DISL:1,2010-12-03T02:00:00Z,30.2513,-88.0778,9.68,1.74,263.6,-9999.0,'1111122,1111122,1111122' 
DISL,ioos:station:DISL:DISL:1,2010-12-03T02:30:00Z,30.2513,-88.0778,9.68,1.67,272.4,-9999.0,'1111122,1111122,1111122' 
DISL,ioos:station:DISL:DISL:1,2010-12-03T03:00:00Z,30.2513,-88.0778,9.68,1.94,268.1,-9999.0,'1111122,1111122,1111122' 
DISL,ioos:station:DISL:DISL:1,2010-12-03T03:30:00Z,30.2513,-88.0778,9.68,2.08,266.3,-9999.0,'1111122,1111122,1111122' 
DISL,ioos:station:DISL:DISL:1,2010-12-03T04:00:00Z,30.2513,-88.0778,9.68,1.89,272.6,-9999.0,'1111122,1111122,1111122' 
DISL,ioos:station:DISL:DISL:1,2010-12-03T04:30:00Z,30.2513,-88.0778,9.68,1.64,272.6,-9999.0,'1111122,1111122,1111122' 
DISL,ioos:station:DISL:DISL:1,2010-12-03T05:00:00Z,30.2513,-88.0778,9.68,1.6,276.6,-9999.0,'1111122,1111122,1111122' 
DISL,ioos:station:DISL:DISL:1,2010-12-03T05:30:00Z,30.2513,-88.0778,9.68,1.55,268.1,-9999.0,'1111122,1111122,1111122' 
DISL,ioos:station:DISL:DISL:1,2010-12-03T06:00:00Z,30.2513,-88.0778,9.68,1.48,249.1,-9999.0,'1111122,1111122,1111122' 
DISL,ioos:station:DISL:DISL:1,2010-12-03T06:30:00Z,30.2513,-88.0778,9.68,1.5,262.5,-9999.0,'1111122,1111122,1111122' 
DISL,ioos:station:DISL:DISL:1,2010-12-03T07:00:00Z,30.2513,-88.0778,9.68,1.48,243.1,-9999.0,'1111122,1111122,1111122' 
DISL,ioos:station:DISL:DISL:1,2010-12-03T07:30:00Z,30.2513,-88.0778,9.68,1.41,268.1,-9999.0,'1111122,1111122,1111122' 
DISL,ioos:station:DISL:DISL:1,2010-12-03T08:00:00Z,30.2513,-88.0778,9.68,1.81,270.1,-9999.0,'1111122,1111122,1111122' 
DISL,ioos:station:DISL:DISL:1,2010-12-03T08:30:00Z,30.2513,-88.0778,9.68,1.72,299.1,-9999.0,'1111122,1111122,1111122' 
DISL,ioos:station:DISL:DISL:1,2010-12-03T09:00:00Z,30.2513,-88.0778,9.68,1.99,311.3,-9999.0,'1111122,1111122,1111122' 
DISL,ioos:station:DISL:DISL:1,2010-12-03T09:30:00Z,30.2513,-88.0778,9.68,3.64,316.7,-9999.0,'1111122,1111122,1111122' 
DISL,ioos:station:DISL:DISL:1,2010-12-03T10:00:00Z,30.2513,-88.0778,9.68,3.91,303.0,-9999.0,'1111122,1111122,1111122' 
DISL,ioos:station:DISL:DISL:1,2010-12-03T10:30:00Z,30.2513,-88.0778,9.68,2.01,283.9,-9999.0,'1111122,1111122,1111122' 
DISL,ioos:station:DISL:DISL:1,2010-12-03T11:00:00Z,30.2513,-88.0778,9.68,1.74,282.7,-9999.0,'1111122,1111122,1111122' 
DISL,ioos:station:DISL:DISL:1,2010-12-03T11:30:00Z,30.2513,-88.0778,9.68,2.01,281.9,-9999.0,'1111122,1111122,1111122' 
DISL,ioos:station:DISL:DISL:1,2010-12-03T12:00:00Z,30.2513,-88.0778,9.68,1.81,283.5,-9999.0,'1111122,1111122,1111122' 
DISL,ioos:station:DISL:DISL:1,2010-12-03T12:30:00Z,30.2513,-88.0778,9.68,2.17,291.6,-9999.0,'1111122,1111122,1111122' 
DISL,ioos:station:DISL:DISL:1,2010-12-03T13:00:00Z,30.2513,-88.0778,9.68,2.67,295.9,-9999.0,'1111122,1111122,1111122' 
DISL,ioos:station:DISL:DISL:1,2010-12-03T13:30:00Z,30.2513,-88.0778,9.68,3.6,291.5,-9999.0,'1111122,1111122,1111122' 
DISL,ioos:station:DISL:DISL:1,2010-12-03T14:00:00Z,30.2513,-88.0778,9.68,3.01,290.3,-9999.0,'1111122,1111122,1111122' 
DISL,ioos:station:DISL:DISL:1,2010-12-03T14:30:00Z,30.2513,-88.0778,9.68,3.07,287.6,-9999.0,'1111122,1111122,1111122' 
DISL,ioos:station:DISL:DISL:1,2010-12-03T15:00:00Z,30.2513,-88.0778,9.68,3.54,290.3,-9999.0,'1111122,1111122,1111122' 
DISL,ioos:station:DISL:DISL:1,2010-12-03T15:30:00Z,30.2513,-88.0778,9.68,3.77,285.3,-9999.0,'1111122,1111122,1111122' 
DISL,ioos:station:DISL:DISL:1,2010-12-03T16:00:00Z,30.2513,-88.0778,9.68,4.28,287.4,-9999.0,'1111122,1111122,1111122' 
DISL,ioos:station:DISL:DISL:1,2010-12-03T16:30:00Z,30.2513,-88.0778,9.68,3.52,293.8,-9999.0,'1111122,1111122,1111122' 
DISL,ioos:station:DISL:DISL:1,2010-12-03T17:00:00Z,30.2513,-88.0778,9.68,3.89,290.0,-9999.0,'1111122,1111122,1111122' 
DISL,ioos:station:DISL:DISL:1,2010-12-03T17:30:00Z,30.2513,-88.0778,9.68,3.69,290.1,-9999.0,'1111122,1111122,1111122' 
DISL,ioos:station:DISL:DISL:1,2010-12-03T18:00:00Z,30.2513,-88.0778,9.68,3.35,264.6,-9999.0,'1111122,1111122,1111122' 
DISL,ioos:station:DISL:DISL:1,2010-12-03T18:30:00Z,30.2513,-88.0778,9.68,2.64,234.4,-9999.0,'1111122,1111122,1111122' 
DISL,ioos:station:DISL:DISL:1,2010-12-03T19:00:00Z,30.2513,-88.0778,9.68,3.34,253.1,-9999.0,'1111122,1111122,1111122' 
DISL,ioos:station:DISL:DISL:1,2010-12-03T19:30:00Z,30.2513,-88.0778,9.68,3.17,217.3,-9999.0,'1111122,1111122,1111122' 
DISL,ioos:station:DISL:DISL:1,2010-12-03T20:00:00Z,30.2513,-88.0778,9.68,3.66,233.1,-9999.0,'1111122,1111122,1111122' 
DISL,ioos:station:DISL:DISL:1,2010-12-03T20:30:00Z,30.2513,-88.0778,9.68,3.32,221.2,-9999.0,'1111122,1111122,1111122' 
DISL,ioos:station:DISL:DISL:1,2010-12-03T21:00:00Z,30.2513,-88.0778,9.68,2.89,227.1,-9999.0,'1111122,1111122,1111122' 
DISL,ioos:station:DISL:DISL:1,2010-12-03T21:30:00Z,30.2513,-88.0778,9.68,2.44,227.7,-9999.0,'1111122,1111122,1111122' 
DISL,ioos:station:DISL:DISL:1,2010-12-03T22:00:00Z,30.2513,-88.0778,9.68,2.18,225.3,-9999.0,'1111122,1111122,1111122' 
DISL,ioos:station:DISL:DISL:1,2010-12-03T22:30:00Z,30.2513,-88.0778,9.68,2.67,226.8,-9999.0,'1111122,1111122,1111122' 
DISL,ioos:station:DISL:DISL:1,2010-12-03T23:00:00Z,30.2513,-88.0778,9.68,1.89,237.5,-9999.0,'1111122,1111122,1111122' 
DISL,ioos:station:DISL:DISL:1,2010-12-03T23:30:00Z,30.2513,-88.0778,9.68,2.06,236.2,-9999.0,'1111122,1111122,1111122' 
DISL,ioos:station:DISL:DISL:1,2010-12-04T00:00:00Z,30.2513,-88.0778,9.68,2.1,244.1,-9999.0,'1111122,1111122,1111122' 
DISL,ioos:station:DISL:DISL:1,2010-12-04T00:30:00Z,30.2513,-88.0778,9.68,1.88,245.3,-9999.0,'1111122,1111122,1111122' 
DISL,ioos:station:DISL:DISL:1,2010-12-04T01:00:00Z,30.2513,-88.0778,9.68,1.85,242.0,-9999.0,'1111122,1111122,1111122' 
DISL,ioos:station:DISL:DISL:1,2010-12-04T01:30:00Z,30.2513,-88.0778,9.68,1.95,236.7,-9999.0,'1111122,1111122,1111122' 
DISL,ioos:station:DISL:DISL:1,2010-12-04T02:00:00Z,30.2513,-88.0778,9.68,1.81,249.1,-9999.0,'1111122,1111122,1111122' 
DISL,ioos:station:DISL:DISL:1,2010-12-04T02:30:00Z,30.2513,-88.0778,9.68,1.95,246.6,-9999.0,'1111122,1111122,1111122' 
DISL,ioos:station:DISL:DISL:1,2010-12-04T03:00:00Z,30.2513,-88.0778,9.68,1.67,229.9,-9999.0,'1111122,1111122,1111122' 
DISL,ioos:station:DISL:DISL:1,2010-12-04T03:30:00Z,30.2513,-88.0778,9.68,1.92,237.0,-9999.0,'1111122,1111122,1111122' 
DISL,ioos:station:DISL:DISL:1,2010-12-04T04:00:00Z,30.2513,-88.0778,9.68,1.77,237.8,-9999.0,'1111122,1111122,1111122' 
DISL,ioos:station:DISL:DISL:1,2010-12-04T04:30:00Z,30.2513,-88.0778,9.68,1.92,240.0,-9999.0,'1111122,1111122,1111122' 
DISL,ioos:station:DISL:DISL:1,2010-12-04T05:00:00Z,30.2513,-88.0778,9.68,1.99,247.1,-9999.0,'1111122,1111122,1111122' 
DISL,ioos:station:DISL:DISL:1,2010-12-04T05:30:00Z,30.2513,-88.0778,9.68,2.14,251.6,-9999.0,'1111122,1111122,1111122' 
DISL,ioos:station:DISL:DISL:1,2010-12-04T06:00:00Z,30.2513,-88.0778,9.68,2.17,249.9,-9999.0,'1111122,1111122,1111122' 
DISL,ioos:station:DISL:DISL:1,2010-12-04T06:30:00Z,30.2513,-88.0778,9.68,1.98,249.5,-9999.0,'1111122,1111122,1111122' 
DISL,ioos:station:DISL:DISL:1,2010-12-04T07:00:00Z,30.2513,-88.0778,9.68,1.91,263.2,-9999.0,'1111122,1111122,1111122' 
DISL,ioos:station:DISL:DISL:1,2010-12-04T07:30:00Z,30.2513,-88.0778,9.68,2.06,257.8,-9999.0,'1111122,1111122,1111122' 
DISL,ioos:station:DISL:DISL:1,2010-12-04T08:00:00Z,30.2513,-88.0778,9.68,2.55,241.8,-9999.0,'1111122,1111122,1111122' 
DISL,ioos:station:DISL:DISL:1,2010-12-04T08:30:00Z,30.2513,-88.0778,9.68,1.9,241.1,-9999.0,'1111122,1111122,1111122' 
DISL,ioos:station:DISL:DISL:1,2010-12-04T09:00:00Z,30.2513,-88.0778,9.68,2.18,245.6,-9999.0,'1111122,1111122,1111122' 
DISL,ioos:station:DISL:DISL:1,2010-12-04T09:30:00Z,30.2513,-88.0778,9.68,2.41,244.6,-9999.0,'1111122,1111122,1111122' 
DISL,ioos:station:DISL:DISL:1,2010-12-04T10:00:00Z,30.2513,-88.0778,9.68,1.87,247.6,-9999.0,'1111122,1111122,1111122' 
DISL,ioos:station:DISL:DISL:1,2010-12-04T10:30:00Z,30.2513,-88.0778,9.68,2.09,235.5,-9999.0,'1111122,1111122,1111122' 
DISL,ioos:station:DISL:DISL:1,2010-12-04T11:00:00Z,30.2513,-88.0778,9.68,1.98,235.2,-9999.0,'1111122,1111122,1111122' 
DISL,ioos:station:DISL:DISL:1,2010-12-04T11:30:00Z,30.2513,-88.0778,9.68,1.91,237.7,-9999.0,'1111122,1111122,1111122' 
DISL,ioos:station:DISL:DISL:1,2010-12-04T12:00:00Z,30.2513,-88.0778,9.68,2.34,226.2,-9999.0,'1111122,1111122,1111122' 
DISL,ioos:station:DISL:DISL:1,2010-12-04T12:30:00Z,30.2513,-88.0778,9.68,2.22,233.6,-9999.0,'1111122,1111122,1111122' 
DISL,ioos:station:DISL:DISL:1,2010-12-04T13:00:00Z,30.2513,-88.0778,9.68,2.11,228.2,-9999.0,'1111122,1111122,1111122' 
DISL,ioos:station:DISL:DISL:1,2010-12-04T13:30:00Z,30.2513,-88.0778,9.68,1.89,241.1,-9999.0,'1111122,1111122,1111122' 
DISL,ioos:station:DISL:DISL:1,2010-12-04T14:00:00Z,30.2513,-88.0778,9.68,2.57,229.3,-9999.0,'1111122,1111122,1111122' 
DISL,ioos:station:DISL:DISL:1,2010-12-04T14:30:00Z,30.2513,-88.0778,9.68,2.0,221.6,-9999.0,'1111122,1111122,1111122' 
DISL,ioos:station:DISL:DISL:1,2010-12-04T15:00:00Z,30.2513,-88.0778,9.68,2.04,222.1,-9999.0,'1111122,1111122,1111122' 
DISL,ioos:station:DISL:DISL:1,2010-12-04T15:30:00Z,30.2513,-88.0778,9.68,3.21,223.8,-9999.0,'1111122,1111122,1111122' 
DISL,ioos:station:DISL:DISL:1,2010-12-04T16:00:00Z,30.2513,-88.0778,9.68,3.52,228.5,-9999.0,'1111122,1111122,1111122' 
DISL,ioos:station:DISL:DISL:1,2010-12-04T16:30:00Z,30.2513,-88.0778,9.68,4.14,218.2,-9999.0,'1111122,1111122,1111122' 
DISL,ioos:station:DISL:DISL:1,2010-12-04T17:00:00Z,30.2513,-88.0778,9.68,3.66,216.3,-9999.0,'1111122,1111122,1111122' 
DISL,ioos:station:DISL:DISL:1,2010-12-04T17:30:00Z,30.2513,-88.0778,9.68,3.22,228.5,-9999.0,'1111122,1111122,1111122' 
DISL,ioos:station:DISL:DISL:1,2010-12-04T18:00:00Z,30.2513,-88.0778,9.68,3.58,225.9,-9999.0,'1111122,1111122,1111122' 
DISL,ioos:station:DISL:DISL:1,2010-12-04T18:30:00Z,30.2513,-88.0778,9.68,3.02,226.8,-9999.0,'1111122,1111122,1111122' 
DISL,ioos:station:DISL:DISL:1,2010-12-04T19:00:00Z,30.2513,-88.0778,9.68,2.99,215.0,-9999.0,'1111122,1111122,1111122' 
DISL,ioos:station:DISL:DISL:1,2010-12-04T19:30:00Z,30.2513,-88.0778,9.68,3.35,220.2,-9999.0,'1111122,1111122,1111122' 
DISL,ioos:station:DISL:DISL:1,2010-12-04T20:00:00Z,30.2513,-88.0778,9.68,2.85,233.4,-9999.0,'1111122,1111122,1111122' 
DISL,ioos:station:DISL:DISL:1,2010-12-04T20:30:00Z,30.2513,-88.0778,9.68,3.42,234.9,-9999.0,'1111122,1111122,1111122' 
DISL,ioos:station:DISL:DISL:1,2010-12-04T21:00:00Z,30.2513,-88.0778,9.68,3.53,230.8,-9999.0,'1111122,1111122,1111122' 
DISL,ioos:station:DISL:DISL:1,2010-12-04T21:30:00Z,30.2513,-88.0778,9.68,3.29,233.4,-9999.0,'1111122,1111122,1111122' 
DISL,ioos:station:DISL:DISL:1,2010-12-04T22:00:00Z,30.2513,-88.0778,9.68,3.11,232.8,-9999.0,'1111122,1111122,1111122' 
DISL,ioos:station:DISL:DISL:1,2010-12-04T22:30:00Z,30.2513,-88.0778,9.68,3.42,232.6,-9999.0,'1111122,1111122,1111122' 
DISL,ioos:station:DISL:DISL:1,2010-12-04T23:00:00Z,30.2513,-88.0778,9.68,2.94,234.3,-9999.0,'1111122,1111122,1111122' 
DISL,ioos:station:DISL:DISL:1,2010-12-04T23:30:00Z,30.2513,-88.0778,9.68,3.41,233.1,-9999.0,'1111122,1111122,1111122' 
DISL,ioos:station:DISL:DISL:1,2010-12-05T00:00:00Z,30.2513,-88.0778,9.68,3.52,233.0,-9999.0,'1111122,1111122,1111122' 
DISL,ioos:station:DISL:DISL:1,2010-12-05T00:30:00Z,30.2513,-88.0778,9.68,3.07,236.2,-9999.0,'1111122,1111122,1111122' 
DISL,ioos:station:DISL:DISL:1,2010-12-05T01:00:00Z,30.2513,-88.0778,9.68,3.0,243.3,-9999.0,'1111122,1111122,1111122' 
DISL,ioos:station:DISL:DISL:1,2010-12-05T01:30:00Z,30.2513,-88.0778,9.68,3.22,231.2,-9999.0,'1111122,1111122,1111122' 
DISL,ioos:station:DISL:DISL:1,2010-12-05T02:00:00Z,30.2513,-88.0778,9.68,3.26,239.7,-9999.0,'1111122,1111122,1111122' 
DISL,ioos:station:DISL:DISL:1,2010-12-05T02:30:00Z,30.2513,-88.0778,9.68,3.77,241.4,-9999.0,'1111122,1111122,1111122' 
DISL,ioos:station:DISL:DISL:1,2010-12-05T03:00:00Z,30.2513,-88.0778,9.68,4.57,247.3,-9999.0,'1111122,1111122,1111122' 
DISL,ioos:station:DISL:DISL:1,2010-12-05T03:30:00Z,30.2513,-88.0778,9.68,4.13,243.8,-9999.0,'1111122,1111122,1111122' 